| time (UTC) | temp F | wind direction | speed MPH | gust MPH | rain 1hr in | rain 24hr in | rain mn in | humidity % | barometer mb |
| 20260903190105 | 61 | 308 | 3.0 | 10.0 | 0.00 | 0.07 | 0.02 | 72 | 1012.8 |
| 20260903184604 | 61 | 315 | 3.0 | 10.0 | 0.00 | 0.11 | 0.02 | 72 | 1012.8 |
| 20260903183121 | 61 | 291 | 3.0 | 11.0 | 0.00 | 0.11 | 0.02 | 72 | 1013.0 |
| 20260903181639 | 61 | 289 | 3.0 | 11.0 | 0.00 | 0.11 | 0.02 | 70 | 1013.1 |
| 20260903174604 | 60 | 270 | 4.0 | 12.0 | 0.00 | 0.11 | 0.02 | 71 | 1013.0 |
| 20260903173111 | 60 | 313 | 3.0 | 11.0 | 0.00 | 0.11 | 0.02 | 76 | 1013.1 |
| 20260903171607 | 60 | 243 | 4.0 | 14.0 | 0.00 | 0.11 | 0.02 | 80 | 1013.3 |
| 20260903164605 | 58 | 236 | 4.0 | 14.0 | 0.03 | 0.11 | 0.02 | 87 | 1013.5 |
| 20260903163100 | 58 | 279 | 2.0 | 7.0 | 0.03 | 0.11 | 0.02 | 88 | 1013.5 |
| 20260903161617 | 58 | 265 | 3.0 | 10.0 | 0.02 | 0.10 | 0.01 | 87 | 1013.7 |
| 20260903160101 | 58 | 0 | 0.0 | 4.0 | 0.00 | 0.08 | 0.00 | 86 | 1013.7 |
| 20260903154600 | 58 | 347 | 2.0 | 8.0 | 0.00 | 0.07 | 0.07 | 83 | 1013.8 |
| 20260903153101 | 61 | 268 | 3.0 | 9.0 | 0.00 | 0.07 | 0.07 | 76 | 1014.1 |
| 20260903151614 | 60 | 246 | 2.0 | 10.0 | 0.00 | 0.07 | 0.07 | 74 | 1013.9 |
| 20260903144602 | 61 | 250 | 3.0 | 10.0 | 0.00 | 0.07 | 0.07 | 69 | 1014.3 |
| 20260903143103 | 61 | 0 | 1.0 | 11.0 | 0.00 | 0.07 | 0.07 | 65 | 1014.4 |
| 20260903141605 | 61 | 263 | 1.0 | 7.0 | 0.00 | 0.07 | 0.07 | 70 | 1014.5 |
| 20260903140104 | 61 | 306 | 2.0 | 8.0 | 0.00 | 0.07 | 0.07 | 68 | 1014.6 |
| 20260903134609 | 61 | 300 | 2.0 | 11.0 | 0.00 | 0.08 | 0.07 | 69 | 1014.9 |
| 20260903133106 | 61 | 290 | 4.0 | 13.0 | 0.00 | 0.08 | 0.07 | 70 | 1015.0 |
| 20260903131604 | 61 | 324 | 1.0 | 7.0 | 0.00 | 0.08 | 0.07 | 70 | 1015.1 |
| 20260903130109 | 61 | 265 | 1.0 | 10.0 | 0.00 | 0.08 | 0.07 | 68 | 1015.0 |
| 20260903124606 | 61 | 269 | 1.0 | 11.0 | 0.00 | 0.08 | 0.07 | 67 | 1015.4 |
| 20260903123105 | 61 | 267 | 3.0 | 12.0 | 0.00 | 0.08 | 0.07 | 68 | 1015.4 |
| 20260903121601 | 61 | 296 | 5.0 | 11.0 | 0.00 | 0.08 | 0.07 | 71 | 1015.4 |
| 20260903120103 | 61 | 296 | 2.0 | 10.0 | 0.00 | 0.08 | 0.07 | 70 | 1015.4 |
| 20260903114602 | 61 | 350 | 2.0 | 12.0 | 0.00 | 0.16 | 0.07 | 76 | 1015.5 |
| 20260903113102 | 61 | 265 | 3.0 | 10.0 | 0.00 | 0.16 | 0.07 | 79 | 1015.3 |
| 20260903111602 | 61 | 309 | 1.0 | 8.0 | 0.00 | 0.16 | 0.07 | 81 | 1015.1 |
| 20260903104605 | 59 | 0 | 1.0 | 7.0 | 0.00 | 0.24 | 0.07 | 87 | 1014.9 |
| 20260903103101 | 59 | 234 | 1.0 | 7.0 | 0.00 | 0.24 | 0.07 | 86 | 1014.9 |
| 20260903101607 | 60 | 328 | 1.0 | 9.0 | 0.00 | 0.24 | 0.07 | 86 | 1014.8 |
| 20260903094611 | 61 | 315 | 1.0 | 9.0 | 0.00 | 0.24 | 0.07 | 82 | 1014.5 |
| 20260903093107 | 62 | 299 | 0.0 | 6.0 | 0.00 | 0.24 | 0.07 | 80 | 1014.6 |
| 20260903091609 | 62 | 329 | 4.0 | 10.0 | 0.00 | 0.24 | 0.07 | 79 | 1014.5 |
| 20260903090106 | 62 | 284 | 2.0 | 8.0 | 0.00 | 0.24 | 0.07 | 82 | 1014.4 |
| 20260903084618 | 62 | 281 | 2.0 | 7.0 | 0.00 | 0.24 | 0.07 | 82 | 1014.5 |
| 20260903083107 | 62 | 317 | 1.0 | 8.0 | 0.00 | 0.24 | 0.07 | 83 | 1014.4 |
| 20260903081602 | 64 | 355 | 2.0 | 7.0 | 0.00 | 0.24 | 0.07 | 77 | 1014.5 |
| 20260903080106 | 64 | 292 | 2.0 | 9.0 | 0.00 | 0.24 | 0.07 | 77 | 1014.5 |
| 20260903074600 | 65 | 257 | 6.0 | 13.0 | 0.00 | 0.24 | 0.07 | 75 | 1014.6 |
| 20260903073115 | 66 | 315 | 2.0 | 8.0 | 0.00 | 0.24 | 0.07 | 71 | 1014.7 |
| 20260903071601 | 66 | 301 | 3.0 | 9.0 | 0.00 | 0.24 | 0.07 | 71 | 1014.8 |
| 20260903070108 | 66 | 267 | 2.0 | 9.0 | 0.00 | 0.24 | 0.07 | 72 | 1014.9 |
| 20260903064602 | 66 | 257 | 2.0 | 7.0 | 0.00 | 0.24 | 0.07 | 71 | 1015.0 |
| 20260903063126 | 65 | 334 | 2.0 | 9.0 | 0.00 | 0.24 | 0.07 | 75 | 1015.2 |
| 20260903061604 | 66 | 294 | 2.0 | 7.0 | 0.00 | 0.24 | 0.07 | 77 | 1015.4 |
| 20260903060108 | 65 | 0 | 2.0 | 6.0 | 0.00 | 0.24 | 0.07 | 82 | 1015.4 |
| 20260903054601 | 63 | 355 | 0.0 | 10.0 | 0.00 | 0.24 | 0.07 | 88 | 1015.7 |
| 20260903053104 | 63 | 9 | 1.0 | 5.0 | 0.00 | 0.24 | 0.07 | 86 | 1016.0 |
| 20260903051602 | 62 | 67 | 3.0 | 8.0 | 0.01 | 0.24 | 0.07 | 86 | 1016.3 |
| 20260903050105 | 62 | 341 | 2.0 | 5.0 | 0.01 | 0.24 | 0.07 | 90 | 1016.4 |
| 20260903044600 | 61 | 281 | 1.0 | 5.0 | 0.01 | 0.24 | 0.07 | 91 | 1016.8 |
| 20260903043110 | 60 | 324 | 1.0 | 7.0 | 0.02 | 0.24 | 0.07 | 89 | 1017.3 |
| 20260903041601 | 62 | 335 | 1.0 | 8.0 | 0.00 | 0.22 | 0.05 | 89 | 1017.6 |
| 20260903040105 | 62 | 286 | 0.0 | 7.0 | 0.00 | 0.22 | 0.05 | 90 | 1017.6 |
| 20260903034605 | 60 | 360 | 1.0 | 8.0 | 0.00 | 0.22 | 0.05 | 90 | 1018.0 |
| 20260903033103 | 61 | 19 | 1.0 | 6.0 | 0.00 | 0.22 | 0.04 | 89 | 1017.9 |
| 20260903031557 | 61 | 5 | 3.0 | 10.0 | 0.00 | 0.22 | 0.04 | 84 | 1018.0 |
| 20260903030110 | 62 | 343 | 0.0 | 3.0 | 0.00 | 0.22 | 0.04 | 84 | 1018.0 |
| 20260903024600 | 63 | 0 | 0.0 | 4.0 | 0.00 | 0.22 | 0.04 | 83 | 1018.1 |
| 20260903023108 | 63 | 0 | 1.0 | 5.0 | 0.00 | 0.22 | 0.04 | 85 | 1018.4 |
| 20260903021602 | 61 | 19 | 0.0 | 3.0 | 0.00 | 0.22 | 0.04 | 88 | 1018.6 |
| 20260903014603 | 61 | 14 | 1.0 | 6.0 | 0.00 | 0.22 | 0.04 | 89 | 1019.0 |
| 20260903013103 | 61 | 0 | 0.0 | 4.0 | 0.00 | 0.22 | 0.04 | 91 | 1019.0 |
| 20260903011610 | 60 | 0 | 0.0 | 4.0 | 0.00 | 0.22 | 0.04 | 93 | 1019.1 |
| 20260903010108 | 59 | 19 | 0.0 | 2.0 | 0.00 | 0.22 | 0.04 | 94 | 1019.1 |
| 20260903004625 | 58 | 14 | 0.0 | 5.0 | 0.00 | 0.22 | 0.04 | 94 | 1018.8 |
| 20260903003107 | 57 | 0 | 0.0 | 3.0 | 0.00 | 0.22 | 0.04 | 95 | 1018.8 |
| 20260903001604 | 58 | 0 | 0.0 | 1.0 | 0.00 | 0.22 | 0.04 | 95 | 1019.0 |
| 20260902234601 | 56 | 0 | 0.0 | 1.0 | 0.00 | 0.22 | 0.04 | 95 | 1018.9 |
| 20260902233105 | 55 | 0 | 0.0 | 1.0 | 0.00 | 0.22 | 0.04 | 95 | 1018.9 |
| 20260902231607 | 55 | 0 | 0.0 | 1.0 | 0.00 | 0.22 | 0.04 | 95 | 1018.9 |
| 20260902230106 | 54 | 0 | 0.0 | 1.0 | 0.00 | 0.22 | 0.04 | 95 | 1018.7 |
| 20260902224603 | 54 | 0 | 0.0 | 1.0 | 0.00 | 0.22 | 0.04 | 95 | 1018.5 |
| 20260902223121 | 53 | 0 | 0.0 | 0.0 | 0.00 | 0.22 | 0.04 | 95 | 1018.9 |
| 20260902221608 | 53 | 0 | 0.0 | 0.0 | 0.00 | 0.22 | 0.04 | 95 | 1018.9 |
| 20260902220112 | 53 | 0 | 0.0 | 0.0 | 0.00 | 0.21 | 0.03 | 95 | 1018.8 |
| 20260902214604 | 54 | 0 | 0.0 | 0.0 | 0.00 | 0.21 | 0.03 | 94 | 1018.9 |
| 20260902213102 | 55 | 0 | 0.0 | 1.0 | 0.00 | 0.21 | 0.03 | 95 | 1018.8 |
| 20260902211603 | 55 | 0 | 0.0 | 0.0 | 0.00 | 0.21 | 0.03 | 95 | 1018.9 |
| 20260902210100 | 55 | 0 | 0.0 | 0.0 | 0.00 | 0.21 | 0.03 | 95 | 1018.8 |
| 20260902204642 | 55 | 0 | 0.0 | 1.0 | 0.00 | 0.21 | 0.03 | 95 | 1018.7 |
| 20260902203102 | 55 | 0 | 0.0 | 1.0 | 0.00 | 0.21 | 0.03 | 95 | 1018.8 |
| 20260902201603 | 55 | 0 | 0.0 | 0.0 | 0.00 | 0.21 | 0.03 | 95 | 1018.8 |
| 20260902200103 | 55 | 0 | 0.0 | 1.0 | 0.00 | 0.21 | 0.03 | 95 | 1018.9 |
| 20260902194603 | 55 | 0 | 0.0 | 1.0 | 0.00 | 0.21 | 0.03 | 95 | 1018.9 |
| 20260902193105 | 56 | 0 | 0.0 | 2.0 | 0.00 | 0.21 | 0.03 | 94 | 1019.1 |
| 20260902191604 | 56 | 0 | 0.0 | 0.0 | 0.03 | 0.21 | 0.03 | 95 | 1019.1 |